Location: *
(1.3500°S, 147.5000°W)
Time: 02:51:36
(UTC+00:00)

Envisat - Pass Details

Date: 30 June 2021
Orbit: 764 x 766 km, 98.2° (Epoch: 03 August)

Event Time Altitude Azimuth Distance (km) Brightness Sun altitude
Rises 14:47:03 0° 11° (NNE) 3,212 6.7 -15.9°
Reaches altitude 10° 14:49:21 10° 11° (NNE) 2,289 5.9 -15.3°
Maximum altitude 14:54:24 88° 286° (WNW) 767 3.0 -14.2°
Drops below altitude 10° 14:59:29 10° 192° (SSW) 2,299 5.1 -13.0°
Sets 15:01:47 0° 192° (SSW) 3,228 5.9 -12.5°
